Weather History for Metropolis, IL

Change the Weather History Date:

Wednesday, January 22, 2014

  Actual Average (KPAH) Record (KPAH)
Temperature  
Mean Temperature 23 °F 35 °F  
Max Temperature 31 °F 44 °F 67 °F (1999)
Min Temperature 15 °F 26 °F 0 °F (1984)
Degree Days  
Heating Degree Days 42 30  
Month to date heating degree days 677  
Since 1 July heating degree days 2308  
Cooling Degree Days 0 0  
Month to date cooling degree days 0  
Year to date cooling degree days 0  
Moisture  
Dew Point 10 °F    
Average Humidity 63    
Maximum Humidity 78    
Minimum Humidity 44    
Precipitation  
Precipitation 0.00 in 0.12 in 3.21 in (1982)
Month to date precipitation 2.60  
Year to date precipitation 2.60  
Snow  
Snow 0.00 in 0.10 in 3.00 in (1966)
Month to date snowfall 2.0  
Since 1 July snowfall 4.3  
Snow Depth -    
Sea Level Pressure  
Sea Level Pressure 30.16 in    
Wind  
Wind Speed 4 mph (SSW)    
Max Wind Speed 16 mph    
Max Gust Speed 20 mph    
Visibility 10 miles    
Events      
T = Trace of Precipitation, MM = Missing Value Source: NWS Daily Summary

Daily Weather History Graph

Daily Weather History Graph

Search for Another Location

Airport:

Trip Planner

Search our weather history database for the weather conditions in past years. The results will help you decide how hot, cold, wet, or windy it might be!

Date:

Astronomy

Jan. 22, 2014 Rise Set
Actual Time 7:04 AM CST 5:08 PM CST
Civil Twilight 6:36 AM CST 5:36 PM CST
Nautical Twilight 6:05 AM CST 6:08 PM CST
Astronomical Twilight 5:34 AM CST 6:39 PM CST
Moon 11:31 PM CST (1/22) 10:14 AM CST (1/22)
Length of Visible Light 11h 00m
Length of Day
10h 04m
Waning Gibbous, 65% of the Moon is Illuminated
Jan 22
Waning Gibbous
Jan 23
Last Quarter
Jan 30
New
Feb 6
First Quarter
Feb 14
Full

Hourly Weather History & Observations

Time (CST) Temp. Windchill Dew Point Humidity Pressure Visibility Wind Dir Wind Speed Gust Speed Precip Events Conditions
12:15 AM 15.4 °F - 7.5 °F 71% 30.25 in 10.0 mi Calm Calm - N/A   Scattered Clouds
12:35 AM 15.6 °F 8.3 °F 6.4 °F 67% 30.24 in 10.0 mi NE 4.6 mph - N/A   Overcast
12:55 AM 15.6 °F - 5.9 °F 66% 30.24 in 10.0 mi Calm Calm - N/A   Overcast
1:15 AM 15.4 °F - 6.3 °F 67% 30.24 in 10.0 mi Calm Calm - N/A   Overcast
1:35 AM 15.6 °F - 6.1 °F 66% 30.24 in 10.0 mi Calm Calm - N/A   Overcast
1:55 AM 15.6 °F 8.3 °F 5.9 °F 66% 30.23 in 10.0 mi ENE 4.6 mph - N/A   Overcast
2:15 AM 15.8 °F 10.2 °F 6.3 °F 66% 30.23 in 10.0 mi ENE 3.5 mph - N/A   Overcast
2:35 AM 15.8 °F 8.6 °F 6.4 °F 67% 30.23 in 10.0 mi ESE 4.6 mph - N/A   Overcast
2:55 AM 15.8 °F - 6.4 °F 67% 30.22 in 10.0 mi Calm Calm - N/A   Overcast
3:15 AM 15.6 °F - 6.3 °F 67% 30.21 in 10.0 mi Calm Calm - N/A   Overcast
3:35 AM 15.8 °F - 6.3 °F 66% 30.21 in 10.0 mi Calm Calm - N/A   Overcast
3:55 AM 15.8 °F - 6.8 °F 68% 30.20 in 10.0 mi Calm Calm - N/A   Overcast
4:15 AM 16.3 °F - 7.7 °F 69% 30.19 in 10.0 mi Calm Calm - N/A   Overcast
4:35 AM 16.5 °F 11.0 °F 8.1 °F 69% 30.17 in 10.0 mi ESE 3.5 mph - N/A   Overcast
4:55 AM 16.7 °F 8.3 °F 8.2 °F 69% 30.17 in 10.0 mi SE 5.8 mph - N/A   Overcast
5:15 AM 17.1 °F 10.0 °F 8.4 °F 69% 30.16 in 10.0 mi SE 4.6 mph - N/A   Overcast
5:35 AM 16.7 °F 9.6 °F 7.9 °F 68% 30.17 in 10.0 mi SSE 4.6 mph - N/A   Overcast
5:55 AM 16.7 °F 11.2 °F 8.2 °F 69% 30.17 in 10.0 mi SE 3.5 mph - N/A   Overcast
6:15 AM 17.1 °F 10.0 °F 8.6 °F 69% 30.17 in 10.0 mi South 4.6 mph - N/A   Overcast
6:35 AM 17.1 °F 10.0 °F 8.4 °F 69% 30.17 in 10.0 mi South 4.6 mph - N/A   Overcast
6:55 AM 17.2 °F 6.8 °F 8.6 °F 69% 30.19 in 10.0 mi SSW 8.1 mph - N/A   Overcast
7:15 AM 17.4 °F 8.0 °F 9.1 °F 70% 30.19 in 10.0 mi SSW 6.9 mph - N/A   Overcast
7:35 AM 17.6 °F 6.4 °F 8.6 °F 68% 30.19 in 10.0 mi SSW 9.2 mph - N/A   Overcast
7:55 AM 17.6 °F 9.3 °F 8.6 °F 68% 30.18 in 10.0 mi SSW 5.8 mph - N/A   Overcast
8:15 AM 18.1 °F 7.9 °F 9.1 °F 68% 30.18 in 10.0 mi SSW 8.1 mph - N/A   Overcast
8:35 AM 18.5 °F 8.4 °F 8.8 °F 66% 30.18 in 10.0 mi South 8.1 mph - N/A   Overcast
8:55 AM 19.0 °F 8.2 °F 9.3 °F 66% 30.18 in 10.0 mi South 9.2 mph - N/A   Overcast
9:15 AM 19.2 °F 9.3 °F 9.3 °F 65% 30.17 in 10.0 mi South 8.1 mph - N/A   Overcast
9:35 AM 20.3 °F 9.0 °F 9.5 °F 63% 30.17 in 10.0 mi SSW 10.4 mph - N/A   Overcast
9:55 AM 21.0 °F 9.3 °F 9.5 °F 61% 30.16 in 10.0 mi South 11.5 mph - N/A   Overcast
10:15 AM 21.9 °F 11.0 °F 9.3 °F 58% 30.17 in 10.0 mi South 10.4 mph - N/A   Overcast
10:35 AM 22.6 °F 11.9 °F 9.9 °F 58% 30.17 in 10.0 mi SSW 10.4 mph - N/A   Overcast
10:55 AM 23.7 °F 12.1 °F 10.2 °F 56% 30.15 in 10.0 mi South 12.7 mph 18.4 mph N/A   Overcast
11:15 AM 23.9 °F 12.9 °F 9.0 °F 53% 30.14 in 10.0 mi SW 11.5 mph - N/A   Overcast
11:40 AM 25.2 °F 14.4 °F 9.5 °F 52% 30.11 in 10.0 mi South 11.5 mph 17.3 mph N/A   Overcast
11:55 AM 25.5 °F 16.2 °F 9.7 °F 51% 30.10 in 10.0 mi SSW 9.2 mph - N/A   Overcast
12:15 PM 26.2 °F 15.8 °F 10.0 °F 50% 30.09 in 10.0 mi SW 11.5 mph 17.3 mph N/A   Overcast
12:35 PM 26.8 °F 15.9 °F 10.2 °F 50% 30.08 in 10.0 mi SSW 12.7 mph - N/A   Overcast
12:55 PM 28.0 °F 17.5 °F 11.1 °F 49% 30.07 in 10.0 mi SW 12.7 mph 17.3 mph N/A   Overcast
1:15 PM 29.3 °F 17.7 °F 10.2 °F 45% 30.07 in 10.0 mi SW 16.1 mph - N/A   Overcast
1:35 PM 29.5 °F 19.3 °F 9.7 °F 44% 30.06 in 10.0 mi WSW 12.7 mph 19.6 mph N/A   Overcast
1:55 PM 29.7 °F 20.7 °F 10.4 °F 45% 30.06 in 10.0 mi WSW 10.4 mph 18.4 mph N/A   Overcast
2:15 PM 29.8 °F 21.5 °F 10.8 °F 45% 30.07 in 10.0 mi WSW 9.2 mph - N/A   Overcast
2:35 PM 30.2 °F 23.4 °F 11.7 °F 46% 30.08 in 10.0 mi West 6.9 mph - N/A   Overcast
2:55 PM 30.9 °F 24.3 °F 12.2 °F 46% 30.07 in 10.0 mi WSW 6.9 mph 18.4 mph N/A   Overcast
3:15 PM 31.3 °F 22.7 °F 12.6 °F 46% 30.07 in 10.0 mi WSW 10.4 mph - N/A   Overcast
3:35 PM 31.5 °F 24.2 °F 12.0 °F 45% 30.08 in 10.0 mi WSW 8.1 mph - N/A   Overcast
3:55 PM 31.3 °F 23.3 °F 12.4 °F 46% 30.09 in 10.0 mi West 9.2 mph - N/A   Overcast
4:15 PM 31.5 °F 24.9 °F 12.4 °F 45% 30.09 in 10.0 mi West 6.9 mph - N/A   Overcast
4:35 PM 31.5 °F 24.9 °F 12.7 °F 46% 30.10 in 10.0 mi West 6.9 mph - N/A   Overcast
4:55 PM 31.3 °F 27.9 °F 12.9 °F 47% 30.11 in 10.0 mi WNW 3.5 mph - N/A   Overcast
5:15 PM 30.2 °F 26.7 °F 12.6 °F 48% 30.11 in 10.0 mi West 3.5 mph - N/A   Scattered Clouds
5:35 PM 28.8 °F - 13.1 °F 52% 30.11 in 10.0 mi Calm Calm - N/A   Clear
5:55 PM 26.4 °F - 13.3 °F 58% 30.12 in 10.0 mi Calm Calm - N/A   Clear
6:15 PM 25.5 °F - 13.1 °F 59% 30.13 in 10.0 mi Calm Calm - N/A   Clear
6:35 PM 23.7 °F - 13.3 °F 64% 30.14 in 10.0 mi Calm Calm - N/A   Clear
6:55 PM 22.6 °F - 12.7 °F 66% 30.15 in 10.0 mi Calm Calm - N/A   Clear
7:15 PM 22.3 °F 17.6 °F 13.1 °F 68% 30.15 in 10.0 mi NW 3.5 mph - N/A   Clear
7:35 PM 21.7 °F - 13.5 °F 70% 30.16 in 10.0 mi Calm Calm - N/A   Clear
7:55 PM 20.8 °F - 13.3 °F 73% 30.16 in 10.0 mi Calm Calm - N/A   Clear
8:15 PM 20.8 °F - 13.3 °F 73% 30.17 in 10.0 mi Calm Calm - N/A   Clear
8:35 PM 21.0 °F - 13.5 °F 73% 30.17 in 10.0 mi Calm Calm - N/A   Clear
8:55 PM 20.1 °F - 12.9 °F 74% 30.18 in 10.0 mi Calm Calm - N/A   Mostly Cloudy
9:15 PM 20.3 °F - 14.4 °F 78% 30.18 in 10.0 mi Calm Calm - N/A   Overcast
9:35 PM 20.7 °F - 14.7 °F 78% 30.19 in 10.0 mi Calm Calm - N/A   Overcast
9:55 PM 21.7 °F - 15.1 °F 76% 30.19 in 10.0 mi Calm Calm - N/A   Overcast
10:15 PM 22.1 °F - 15.8 °F 77% 30.20 in 10.0 mi Calm Calm - N/A   Overcast
10:35 PM 22.5 °F - 15.6 °F 75% 30.21 in 10.0 mi Calm Calm - N/A   Overcast
10:55 PM 22.8 °F - 15.8 °F 74% 30.21 in 10.0 mi Calm Calm - N/A   Scattered Clouds
11:15 PM 21.7 °F - 15.8 °F 78% 30.22 in 10.0 mi Calm Calm - N/A   Clear
11:35 PM 20.7 °F - 14.2 °F 76% 30.22 in 10.0 mi Calm Calm - N/A   Scattered Clouds
11:55 PM 20.1 °F - 14.0 °F 77% 30.22 in 10.0 mi Calm Calm - N/A   Clear